| time (UTC) | temp C | wind direction | speed KPH | gust KPH | rain 1hr cm | rain 24hr cm | rain mn cm | humidity % | barometer mb |
| 20260504120237 | 8 | 243 | 1.6 | 3.2 | 0.00 | 0.00 | 0.00 | 62 | 1015.7 |
| 20260504110704 | 6 | 250 | 1.6 | 1.6 | 0.00 | 0.00 | 0.00 | 66 | 1015.4 |
| 20260504110200 | 6 | 255 | 1.6 | 3.2 | 0.00 | 0.00 | 0.00 | 66 | 1015.4 |
| 20260504100119 | 6 | 233 | 1.6 | 3.2 | 0.00 | 0.00 | 0.00 | 66 | 1015.4 |
| 20260504081512 | 7 | 256 | 1.6 | 1.6 | 0.00 | 0.00 | 0.00 | 62 | 1015.3 |
| 20260504081008 | 7 | 249 | 0.0 | 1.6 | 0.00 | 0.00 | 0.00 | 63 | 1015.4 |
| 20260504080504 | 7 | 249 | 1.6 | 1.6 | 0.00 | 0.00 | 0.00 | 64 | 1015.2 |
| 20260504050317 | 7 | 254 | 0.0 | 1.6 | 0.00 | 0.00 | 0.00 | 57 | 1016.0 |
| 20260504045814 | 7 | 263 | 3.2 | 4.8 | 0.00 | 0.00 | 0.00 | 56 | 1016.1 |
| 20260504045309 | 7 | 246 | 0.0 | 1.6 | 0.00 | 0.00 | 0.00 | 57 | 1015.7 |
| 20260504044806 | 7 | 254 | 0.0 | 1.6 | 0.00 | 0.00 | 0.00 | 56 | 1015.8 |
| 20260504044304 | 7 | 258 | 1.6 | 1.6 | 0.00 | 0.00 | 0.00 | 57 | 1015.7 |
| 20260504043801 | 7 | 250 | 1.6 | 1.6 | 0.00 | 0.00 | 0.00 | 58 | 1015.9 |
| 20260504043258 | 7 | 249 | 0.0 | 1.6 | 0.00 | 0.00 | 0.00 | 58 | 1015.9 |
| 20260504042755 | 7 | 250 | 0.0 | 1.6 | 0.00 | 0.00 | 0.00 | 58 | 1015.7 |
| 20260504042251 | 7 | 250 | 0.0 | 1.6 | 0.00 | 0.00 | 0.00 | 57 | 1016.0 |
| 20260504041748 | 8 | 254 | 0.0 | 1.6 | 0.00 | 0.00 | 0.00 | 55 | 1015.9 |
| 20260504041244 | 8 | 256 | 1.6 | 1.6 | 0.00 | 0.00 | 0.00 | 55 | 1015.8 |
| 20260504040740 | 7 | 256 | 1.6 | 3.2 | 0.00 | 0.00 | 0.00 | 57 | 1015.8 |
| 20260504040238 | 7 | 256 | 1.6 | 1.6 | 0.00 | 0.00 | 0.00 | 58 | 1015.9 |
| 20260504035734 | 7 | 255 | 1.6 | 1.6 | 0.00 | 0.00 | 0.00 | 59 | 1015.6 |
| 20260504035231 | 6 | 242 | 1.6 | 1.6 | 0.00 | 0.00 | 0.00 | 62 | 1015.8 |
| 20260504034729 | 6 | 222 | 0.0 | 0.0 | 0.00 | 0.00 | 0.00 | 63 | 1015.6 |
| 20260504034226 | 6 | 222 | 0.0 | 0.0 | 0.00 | 0.00 | 0.00 | 64 | 1015.7 |
| 20260504033723 | 6 | 222 | 0.0 | 0.0 | 0.00 | 0.00 | 0.00 | 64 | 1015.8 |
| 20260504033221 | 6 | 222 | 0.0 | 0.0 | 0.00 | 0.00 | 0.00 | 64 | 1015.7 |
| 20260504032717 | 6 | 222 | 0.0 | 0.0 | 0.00 | 0.00 | 0.00 | 63 | 1015.7 |
| 20260504032214 | 6 | 222 | 0.0 | 0.0 | 0.00 | 0.00 | 0.00 | 63 | 1015.8 |
| 20260504031710 | 6 | 222 | 0.0 | 0.0 | 0.00 | 0.00 | 0.00 | 63 | 1015.9 |
| 20260504031208 | 6 | 222 | 0.0 | 1.6 | 0.00 | 0.00 | 0.00 | 64 | 1016.0 |
| 20260504030658 | 6 | 245 | 0.0 | 0.0 | 0.00 | 0.00 | 0.00 | 65 | 1015.9 |
| 20260504030156 | 6 | 245 | 0.0 | 0.0 | 0.00 | 0.00 | 0.00 | 63 | 1016.1 |
| 20260504025652 | 6 | 246 | 0.0 | 0.0 | 0.00 | 0.00 | 0.00 | 62 | 1015.9 |
| 20260504025149 | 6 | 246 | 0.0 | 0.0 | 0.00 | 0.00 | 0.00 | 61 | 1016.0 |
| 20260504024646 | 6 | 246 | 0.0 | 0.0 | 0.00 | 0.00 | 0.00 | 62 | 1015.6 |
| 20260504024142 | 6 | 246 | 0.0 | 0.0 | 0.00 | 0.00 | 0.00 | 62 | 1015.9 |
| 20260504023639 | 6 | 242 | 0.0 | 1.6 | 0.00 | 0.00 | 0.00 | 62 | 1015.7 |
| 20260504023135 | 6 | 239 | 0.0 | 0.0 | 0.00 | 0.00 | 0.00 | 59 | 1015.6 |
| 20260504022632 | 6 | 239 | 0.0 | 0.0 | 0.00 | 0.00 | 0.00 | 60 | 1015.8 |
| 20260504022127 | 7 | 239 | 0.0 | 0.0 | 0.00 | 0.00 | 0.00 | 58 | 1015.9 |
| 20260504021626 | 7 | 239 | 0.0 | 0.0 | 0.00 | 0.00 | 0.00 | 57 | 1015.7 |
| 20260504021122 | 7 | 239 | 0.0 | 0.0 | 0.00 | 0.00 | 0.00 | 57 | 1015.8 |
| 20260504020620 | 7 | 239 | 0.0 | 0.0 | 0.00 | 0.00 | 0.00 | 56 | 1015.8 |
| 20260504020115 | 7 | 239 | 0.0 | 1.6 | 0.00 | 0.00 | 0.00 | 55 | 1015.8 |
| 20260504015612 | 8 | 241 | 0.0 | 0.0 | 0.00 | 0.00 | 0.00 | 51 | 1015.8 |
| 20260504015108 | 8 | 241 | 0.0 | 1.6 | 0.00 | 0.00 | 0.00 | 53 | 1015.8 |
| 20260504014604 | 8 | 232 | 0.0 | 0.0 | 0.00 | 0.00 | 0.00 | 52 | 1015.6 |
| 20260504014102 | 8 | 233 | 0.0 | 0.0 | 0.00 | 0.00 | 0.00 | 51 | 1015.4 |
| 20260504013559 | 8 | 232 | 0.0 | 0.0 | 0.00 | 0.00 | 0.00 | 51 | 1015.3 |
| 20260504013056 | 9 | 232 | 0.0 | 0.0 | 0.00 | 0.00 | 0.00 | 50 | 1015.1 |
| 20260504012553 | 10 | 240 | 0.0 | 0.0 | 0.00 | 0.00 | 0.00 | 47 | 1015.2 |
| 20260504012051 | 10 | 247 | 0.0 | 0.0 | 0.00 | 0.00 | 0.00 | 45 | 1015.6 |
| 20260504011547 | 10 | 249 | 0.0 | 1.6 | 0.00 | 0.00 | 0.00 | 44 | 1015.4 |
| 20260504011044 | 10 | 248 | 0.0 | 1.6 | 0.00 | 0.00 | 0.00 | 44 | 1015.1 |
| 20260504010539 | 10 | 249 | 1.6 | 1.6 | 0.00 | 0.00 | 0.00 | 44 | 1015.4 |
| 20260504010036 | 10 | 249 | 0.0 | 1.6 | 0.00 | 0.00 | 0.00 | 43 | 1015.2 |
| 20260504005532 | 11 | 247 | 1.6 | 1.6 | 0.00 | 0.00 | 0.00 | 43 | 1015.1 |
| 20260504005030 | 11 | 249 | 1.6 | 3.2 | 0.00 | 0.00 | 0.00 | 42 | 1015.1 |
| 20260504004528 | 11 | 228 | 0.0 | 1.6 | 0.00 | 0.00 | 0.00 | 41 | 1014.9 |
| 20260504004024 | 11 | 251 | 1.6 | 3.2 | 0.00 | 0.00 | 0.00 | 40 | 1014.9 |
| 20260504003520 | 11 | 244 | 3.2 | 3.2 | 0.00 | 0.00 | 0.00 | 40 | 1014.9 |
| 20260504003012 | 11 | 252 | 3.2 | 4.8 | 0.00 | 0.00 | 0.00 | 40 | 1014.8 |
| 20260504002509 | 11 | 251 | 1.6 | 6.4 | 0.00 | 0.00 | 0.00 | 39 | 1014.7 |
| 20260504002006 | 11 | 262 | 1.6 | 6.4 | 0.00 | 0.00 | 0.00 | 40 | 1014.8 |
| 20260504001503 | 12 | 261 | 3.2 | 4.8 | 0.00 | 0.00 | 0.00 | 40 | 1014.7 |
| 20260504001000 | 12 | 253 | 3.2 | 4.8 | 0.00 | 0.00 | 0.00 | 39 | 1014.9 |
| 20260504000457 | 12 | 236 | 3.2 | 9.7 | 0.00 | 0.00 | 0.00 | 39 | 1014.7 |
| 20260503235954 | 12 | 254 | 4.8 | 6.4 | 0.00 | 0.00 | 0.00 | 38 | 1014.8 |
| 20260503235452 | 12 | 251 | 1.6 | 3.2 | 0.00 | 0.00 | 0.00 | 38 | 1014.8 |
| 20260503234949 | 12 | 246 | 3.2 | 9.7 | 0.00 | 0.00 | 0.00 | 38 | 1014.8 |
| 20260503234446 | 12 | 221 | 3.2 | 6.4 | 0.00 | 0.00 | 0.00 | 37 | 1014.9 |
| 20260503233945 | 13 | 260 | 8.0 | 14.5 | 0.00 | 0.00 | 0.00 | 36 | 1015.0 |
| 20260503233440 | 13 | 265 | 6.4 | 12.9 | 0.00 | 0.00 | 0.00 | 35 | 1015.0 |
| 20260503232937 | 13 | 269 | 6.4 | 12.9 | 0.00 | 0.00 | 0.00 | 35 | 1014.9 |
| 20260503232434 | 13 | 228 | 3.2 | 9.7 | 0.00 | 0.00 | 0.00 | 36 | 1014.9 |
| 20260503231932 | 13 | 245 | 4.8 | 12.9 | 0.00 | 0.00 | 0.00 | 34 | 1014.8 |
| 20260503231429 | 14 | 263 | 1.6 | 9.7 | 0.00 | 0.00 | 0.00 | 33 | 1014.8 |
| 20260503230926 | 14 | 259 | 4.8 | 6.4 | 0.00 | 0.00 | 0.00 | 33 | 1014.9 |
| 20260503230422 | 14 | 292 | 6.4 | 16.1 | 0.00 | 0.00 | 0.00 | 33 | 1014.8 |
| 20260503225920 | 15 | 251 | 3.2 | 3.2 | 0.00 | 0.00 | 0.00 | 33 | 1014.6 |
| 20260503225416 | 14 | 150 | 4.8 | 6.4 | 0.00 | 0.00 | 0.00 | 31 | 1014.8 |
| 20260503224912 | 15 | 262 | 8.0 | 16.1 | 0.00 | 0.00 | 0.00 | 31 | 1014.7 |
| 20260503224409 | 15 | 253 | 6.4 | 12.9 | 0.00 | 0.00 | 0.00 | 31 | 1014.8 |
| 20260503223907 | 15 | 209 | 1.6 | 6.4 | 0.00 | 0.00 | 0.00 | 32 | 1014.7 |
| 20260503223405 | 15 | 254 | 4.8 | 6.4 | 0.00 | 0.00 | 0.00 | 31 | 1015.0 |
| 20260503222900 | 15 | 273 | 9.7 | 20.9 | 0.00 | 0.00 | 0.00 | 31 | 1014.8 |
| 20260503222359 | 15 | 257 | 6.4 | 6.4 | 0.00 | 0.00 | 0.00 | 30 | 1015.0 |
| 20260503221856 | 15 | 272 | 4.8 | 9.7 | 0.00 | 0.00 | 0.00 | 30 | 1014.8 |
| 20260503221355 | 15 | 219 | 4.8 | 4.8 | 0.00 | 0.00 | 0.00 | 31 | 1014.9 |
| 20260503220850 | 15 | 246 | 1.6 | 6.4 | 0.00 | 0.00 | 0.00 | 30 | 1014.8 |
| 20260503220347 | 15 | 238 | 4.8 | 6.4 | 0.00 | 0.00 | 0.00 | 30 | 1014.8 |
| 20260503215844 | 15 | 245 | 4.8 | 9.7 | 0.00 | 0.00 | 0.00 | 30 | 1014.9 |
| 20260503215341 | 15 | 142 | 3.2 | 4.8 | 0.00 | 0.00 | 0.00 | 30 | 1015.0 |
| 20260503214838 | 15 | 242 | 4.8 | 9.7 | 0.00 | 0.00 | 0.00 | 30 | 1015.0 |
| 20260503214336 | 15 | 263 | 6.4 | 9.7 | 0.00 | 0.00 | 0.00 | 30 | 1015.0 |
| 20260503213828 | 15 | 283 | 9.7 | 14.5 | 0.00 | 0.00 | 0.00 | 30 | 1014.9 |
| 20260503213325 | 15 | 202 | 6.4 | 11.3 | 0.00 | 0.00 | 0.00 | 28 | 1015.1 |
| 20260503212822 | 15 | 208 | 3.2 | 12.9 | 0.00 | 0.00 | 0.00 | 31 | 1014.9 |
| 20260503212320 | 15 | 293 | 6.4 | 12.9 | 0.00 | 0.00 | 0.00 | 30 | 1015.0 |
| 20260503211817 | 15 | 238 | 6.4 | 14.5 | 0.00 | 0.00 | 0.00 | 29 | 1015.1 |
| 20260503211313 | 15 | 240 | 4.8 | 9.7 | 0.00 | 0.00 | 0.00 | 29 | 1015.1 |
| 20260503210813 | 15 | 265 | 4.8 | 16.1 | 0.00 | 0.00 | 0.00 | 30 | 1014.9 |
| 20260503210311 | 15 | 261 | 12.9 | 16.1 | 0.00 | 0.00 | 0.00 | 29 | 1015.1 |
| 20260503205805 | 15 | 224 | 3.2 | 9.7 | 0.00 | 0.00 | 0.00 | 30 | 1014.8 |
| 20260503205304 | 15 | 302 | 6.4 | 14.5 | 0.00 | 0.00 | 0.00 | 30 | 1015.1 |
| 20260503204753 | 15 | 256 | 4.8 | 11.3 | 0.00 | 0.00 | 0.00 | 31 | 1015.0 |
| 20260503204251 | 15 | 209 | 3.2 | 14.5 | 0.00 | 0.00 | 0.00 | 30 | 1015.1 |
| 20260503203748 | 15 | 251 | 9.7 | 16.1 | 0.00 | 0.00 | 0.00 | 28 | 1015.1 |
| 20260503203246 | 15 | 225 | 4.8 | 12.9 | 0.00 | 0.00 | 0.00 | 29 | 1015.0 |
| 20260503202743 | 15 | 244 | 9.7 | 14.5 | 0.00 | 0.00 | 0.00 | 28 | 1015.0 |
| 20260503202241 | 15 | 260 | 6.4 | 9.7 | 0.00 | 0.00 | 0.00 | 27 | 1015.2 |
| 20260503201738 | 15 | 162 | 3.2 | 9.7 | 0.00 | 0.00 | 0.00 | 24 | 1015.2 |
| 20260503201235 | 15 | 212 | 1.6 | 14.5 | 0.00 | 0.00 | 0.00 | 26 | 1015.6 |
| 20260503200732 | 15 | 278 | 6.4 | 11.3 | 0.00 | 0.00 | 0.00 | 28 | 1015.4 |
| 20260503200228 | 15 | 261 | 4.8 | 9.7 | 0.00 | 0.00 | 0.00 | 27 | 1015.6 |
| 20260503195725 | 15 | 263 | 8.0 | 14.5 | 0.00 | 0.00 | 0.00 | 28 | 1015.9 |
| 20260503195222 | 15 | 180 | 4.8 | 14.5 | 0.00 | 0.00 | 0.00 | 29 | 1015.7 |
| 20260503194720 | 15 | 242 | 1.6 | 11.3 | 0.00 | 0.00 | 0.00 | 29 | 1015.7 |
| 20260503194215 | 15 | 245 | 6.4 | 6.4 | 0.00 | 0.00 | 0.00 | 27 | 1015.7 |
| 20260503193712 | 15 | 268 | 6.4 | 11.3 | 0.00 | 0.00 | 0.00 | 28 | 1015.9 |
| 20260503193208 | 15 | 246 | 6.4 | 12.9 | 0.00 | 0.00 | 0.00 | 27 | 1015.7 |
| 20260503192703 | 15 | 255 | 6.4 | 17.7 | 0.00 | 0.00 | 0.00 | 27 | 1016.0 |
| 20260503192159 | 15 | 265 | 3.2 | 14.5 | 0.00 | 0.00 | 0.00 | 27 | 1016.2 |
| 20260503191655 | 15 | 221 | 4.8 | 12.9 | 0.00 | 0.00 | 0.00 | 31 | 1016.1 |
| 20260503191153 | 14 | 199 | 1.6 | 6.4 | 0.00 | 0.00 | 0.00 | 30 | 1016.2 |
| 20260503190650 | 14 | 240 | 1.6 | 17.7 | 0.00 | 0.00 | 0.00 | 29 | 1016.3 |
| 20260503190146 | 15 | 211 | 4.8 | 6.4 | 0.00 | 0.00 | 0.00 | 30 | 1016.4 |
| 20260503185637 | 15 | 236 | 3.2 | 4.8 | 0.00 | 0.00 | 0.00 | 30 | 1016.5 |
| 20260503185132 | 13 | 225 | 1.6 | 6.4 | 0.00 | 0.00 | 0.00 | 28 | 1016.4 |
| 20260503184628 | 14 | 198 | 6.4 | 6.4 | 0.00 | 0.00 | 0.00 | 29 | 1016.4 |
| 20260503184124 | 13 | 325 | 0.0 | 9.7 | 0.00 | 0.00 | 0.00 | 33 | 1016.6 |
| 20260503183621 | 13 | 295 | 6.4 | 14.5 | 0.00 | 0.00 | 0.00 | 29 | 1016.5 |
| 20260503183118 | 13 | 200 | 1.6 | 9.7 | 0.00 | 0.00 | 0.00 | 31 | 1016.5 |
| 20260503182617 | 13 | 240 | 4.8 | 9.7 | 0.00 | 0.00 | 0.00 | 32 | 1016.8 |
| 20260503182114 | 13 | 262 | 4.8 | 14.5 | 0.00 | 0.00 | 0.00 | 33 | 1016.8 |
| 20260503181605 | 13 | 215 | 4.8 | 6.4 | 0.00 | 0.00 | 0.00 | 30 | 1016.9 |
| 20260503181102 | 13 | 316 | 6.4 | 9.7 | 0.00 | 0.00 | 0.00 | 29 | 1016.9 |
| 20260503180559 | 14 | 277 | 1.6 | 9.7 | 0.00 | 0.00 | 0.00 | 28 | 1016.8 |
| 20260503180056 | 13 | 187 | 1.6 | 3.2 | 0.00 | 0.00 | 0.00 | 27 | 1016.9 |
| 20260503175553 | 13 | 223 | 1.6 | 4.8 | 0.00 | 0.00 | 0.00 | 29 | 1016.9 |
| 20260503175050 | 13 | 251 | 3.2 | 9.7 | 0.00 | 0.00 | 0.00 | 30 | 1017.2 |
| 20260503174547 | 13 | 140 | 4.8 | 9.7 | 0.00 | 0.00 | 0.00 | 28 | 1017.3 |
| 20260503174044 | 12 | 220 | 4.8 | 9.7 | 0.00 | 0.00 | 0.00 | 33 | 1017.3 |
| 20260503173539 | 12 | 181 | 6.4 | 6.4 | 0.00 | 0.00 | 0.00 | 28 | 1017.3 |
| 20260503173036 | 13 | 273 | 4.8 | 6.4 | 0.00 | 0.00 | 0.00 | 31 | 1017.4 |
| 20260503172533 | 12 | 194 | 3.2 | 6.4 | 0.00 | 0.00 | 0.00 | 28 | 1017.3 |
| 20260503172030 | 12 | 169 | 6.4 | 9.7 | 0.00 | 0.00 | 0.00 | 31 | 1017.3 |
| 20260503171526 | 12 | 321 | 4.8 | 11.3 | 0.00 | 0.00 | 0.00 | 32 | 1017.6 |
| 20260503171024 | 12 | 319 | 4.8 | 11.3 | 0.00 | 0.00 | 0.00 | 32 | 1017.5 |
| 20260503170520 | 12 | 192 | 0.0 | 3.2 | 0.00 | 0.00 | 0.00 | 30 | 1017.8 |
| 20260503150906 | 9 | 257 | 3.2 | 9.7 | 0.00 | 0.00 | 0.00 | 39 | 1018.6 |
| 20260503150402 | 8 | 237 | 1.6 | 9.7 | 0.00 | 0.00 | 0.00 | 42 | 1018.3 |
| 20260503131256 | 5 | 255 | 3.2 | 4.8 | 0.00 | 0.00 | 0.00 | 45 | 1018.6 |
| 20260503130754 | 5 | 244 | 3.2 | 4.8 | 0.00 | 0.00 | 0.00 | 47 | 1018.7 |
| 20260503130251 | 5 | 223 | 1.6 | 9.7 | 0.00 | 0.00 | 0.00 | 47 | 1018.6 |